This demonstration page uses our WeatherBlox Daily Observations layout. Learn more.

Left ArrowRight Arrow

39.92423, -83.80882

Hourly Observations for April 10, 2022

Temp ( °F °C ) Dew Point ( °F °C ) Humidity (%) Winds ( mph kmh ) Pressure ( in mb ) Visibility ( mi km ) Precip ( " mm )
12:56 am 00:56 Cloudy 36 2.2 34 1.1 93 93 SW 5 7 29.99 1016 10 16 0.00 0.00
1:56 am 01:56 Cloudy 37 2.8 34 1.1 89 89 WSW 5 7 30.00 1016 10 16 0.00 0.00
2:56 am 02:56 Cloudy 37 2.8 34 1.1 89 89 SW 7 11 29.99 1016 10 16 0.00 0.00
3:56 am 03:56 Cloudy 37 2.8 33 0.6 86 86 WNW 7 11 30.01 1016 10 16 0.00 0.00
4:56 am 04:56 Mostly Cloudy 36 2.2 33 0.6 89 89 WNW 6 9 30.02 1017 10 16 0.00 0.00
5:56 am 05:56 Clear 33 0.6 33 0.6 100 100 WSW 5 7 30.03 1017 10 16 0.00 0.00
6:56 am 06:56 Clear 32 0 32 0 100 100 SW 6 9 30.05 1018 10 16 0.00 0.00
7:56 am 07:56 Sunny 35 1.7 35 1.7 100 100 SW 8 13 30.07 1018 10 16 0.00 0.00
8:56 am 08:56 Sunny 40 4.4 34 1.1 79 79 WSW 8 13 30.08 1019 10 16 0.00 0.00
9:56 am 09:56 Sunny 44 6.7 33 0.6 65 65 VRB 6 9 30.09 1019 10 16 0.00 0.00
10:56 am 10:56 Sunny 49 9.4 32 0 52 52 W 10 17 30.09 1019 10 16 0.00 0.00
11:56 am 11:56 Sunny 50 10 28 -2.2 43 43 SW 7 11 30.09 1019 10 16 0.00 0.00
12:56 pm 12:56 Sunny 53 11.7 31 -0.6 43 43 SSW 10 17 30.07 1018 10 16 0.00 0.00
1:56 pm 13:56 Sunny 54 12.2 31 -0.6 42 42 VRB 5 7 30.05 1018 10 16 0.00 0.00
2:56 pm 14:56 Sunny 56 13.3 31 -0.6 39 39 S 8 13 30.02 1017 10 16 0.00 0.00
3:56 pm 15:56 Sunny 58 14.4 34 1.1 41 41 SSE 13 20 30.00 1016 10 16 0.00 0.00
4:56 pm 16:56 Sunny 58 14.4 32 0 38 38 S 9 15 29.98 1015 10 16 0.00 0.00
5:56 pm 17:56 Sunny 58 14.4 33 0.6 39 39 SSE 12 19 29.96 1015 10 16 0.00 0.00
6:56 pm 18:56 Sunny 57 13.9 32 0 39 39 SSE 13 20 29.94 1014 10 16 0.00 0.00
7:56 pm 19:56 Sunny 54 12.2 35 1.7 49 49 SSE 9 15 29.93 1013 10 16 0.00 0.00
8:56 pm 20:56 Clear 52 11.1 34 1.1 50 50 SSE 9 15 29.93 1014 10 16 0.00 0.00
9:56 pm 21:56 Clear 48 8.9 34 1.1 58 58 SE 8 13 29.93 1014 10 16 0.00 0.00
10:56 pm 22:56 Clear 49 9.4 33 0.6 55 55 SE 12 19 29.91 1013 10 16 0.00 0.00
11:56 pm 23:56 Clear 48 8.9 33 0.6 56 56 SE 12 19 29.92 1013 10 16 0.00 0.00

Powered by AerisWeather